CW0728 Weather Reports


Display with metric or nautical units.
time (UTC)temp
F
wind
direction
speed
MPH
gust
MPH
rain 1hr
in
rain 24hr
in
rain mn
in
humidity
%
barometer
mb
20260507081553 48 18 0.0 0.0 0.00 0.19 0.02 91 1004.6
20260507080022 48 17 0.0 2.0 0.00 0.19 0.02 91 1004.2
20260507074559 48 343 0.0 1.0 0.00 0.19 0.02 91 1004.4
20260507073040 48 319 0.0 1.0 0.00 0.19 0.02 92 1004.4
20260507071518 49 292 0.0 3.0 0.00 0.19 0.02 93 1004.1
20260507070137 49 342 0.0 2.0 0.00 0.19 0.02 93 1004.2
20260507064531 49 338 0.0 2.0 0.00 0.19 0.02 94 1004.0
20260507063007 50 42 0.0 0.0 0.00 0.19 0.02 94 1003.9
20260507061542 50 46 0.0 2.0 0.00 0.19 0.02 94 1003.8
20260507060030 51 67 0.0 4.0 0.00 0.19 0.02 94 1003.6
20260507054619 52 53 0.0 1.0 0.00 0.19 0.02 95 1003.6
20260507053034 52 61 0.0 8.0 0.00 0.19 0.02 95 1003.4
20260507051507 52 250 0.0 4.0 0.02 0.19 0.02 95 1003.4
20260507050040 52 242 0.0 6.0 0.02 0.19 0.02 95 1003.5
20260507044539 53 273 0.0 0.0 0.02 0.19 0.02 95 1003.1
20260507043101 53 328 0.0 3.0 0.02 0.19 0.02 95 1002.9
20260507041535 52 34 0.0 1.0 0.01 0.17 0.00 96 1002.6
20260507040011 52 232 0.0 0.0 0.01 0.17 0.17 95 1002.9
20260507034552 51 162 0.0 0.0 0.01 0.17 0.17 95 1002.9
20260507033027 51 169 0.0 1.0 0.01 0.17 0.17 95 1002.7
20260507031504 51 161 0.0 0.0 0.00 0.16 0.16 95 1002.5
20260507030047 51 163 0.0 1.0 0.00 0.16 0.16 95 1002.4
20260507024531 50 164 0.0 2.0 0.00 0.16 0.16 95 1002.6
20260507023017 50 180 0.0 4.0 0.00 0.16 0.16 95 1002.7
20260507021615 50 204 1.0 3.0 0.01 0.16 0.16 95 1003.0
20260507020033 50 120 0.0 0.0 0.01 0.16 0.16 95 1003.1
20260507014506 50 168 0.0 0.0 0.01 0.16 0.16 95 1003.2
20260507013052 50 218 0.0 0.0 0.01 0.16 0.16 95 1003.4
20260507011530 50 169 0.0 2.0 0.00 0.15 0.15 95 1003.5
20260507010009 50 145 0.0 7.0 0.00 0.15 0.15 95 1003.6
20260507004548 50 140 0.0 3.0 0.00 0.15 0.15 94 1003.6
20260507003034 50 181 0.0 0.0 0.00 0.15 0.15 94 1003.7
20260507001516 50 139 1.0 10.0 0.00 0.15 0.15 94 1003.6
20260507000055 50 192 0.0 7.0 0.00 0.15 0.15 94 1003.6
20260506234534 50 292 1.0 10.0 0.00 0.15 0.15 94 1003.7
20260506233013 51 114 1.0 7.0 0.00 0.15 0.15 94 1003.7
20260506231554 51 181 1.0 9.0 0.00 0.15 0.15 94 1003.8
20260506230029 51 210 1.0 14.0 0.02 0.15 0.15 94 1003.8
20260506224503 51 111 3.0 12.0 0.03 0.15 0.15 93 1003.8
20260506223042 51 163 4.0 11.0 0.05 0.15 0.15 93 1004.1
20260506221520 51 149 3.0 12.0 0.06 0.15 0.15 93 1004.1
20260506220055 51 237 3.0 11.0 0.06 0.13 0.13 93 1004.4
20260506214546 51 146 2.0 8.0 0.07 0.12 0.12 93 1004.4
20260506213033 51 151 3.0 11.0 0.05 0.10 0.10 93 1004.5
20260506211522 51 229 1.0 12.0 0.05 0.09 0.09 92 1004.8
20260506210003 52 216 3.0 9.0 0.03 0.07 0.07 91 1004.7
20260506204542 52 210 2.0 8.0 0.02 0.05 0.05 91 1004.7
20260506203017 52 247 2.0 11.0 0.02 0.05 0.05 90 1004.8
20260506201617 53 167 2.0 7.0 0.03 0.04 0.04 89 1004.5
20260506200031 54 169 2.0 8.0 0.04 0.04 0.04 88 1004.9
20260506194509 55 180 0.0 6.0 0.03 0.03 0.03 89 1005.0
20260506193053 56 253 2.0 10.0 0.03 0.03 0.03 88 1005.2
20260506191526 55 144 0.0 5.0 0.01 0.01 0.01 88 1005.5
20260506190001 54 184 0.0 6.0 0.00 0.00 0.00 87 1005.4
20260506184547 53 189 2.0 10.0 0.00 0.00 0.00 85 1005.2
20260506183024 53 123 3.0 12.0 0.00 0.00 0.00 84 1005.1
20260506181502 53 186 2.0 9.0 0.00 0.00 0.00 84 1005.3
20260506180041 53 223 2.0 8.0 0.00 0.00 0.00 83 1005.2
20260506174519 54 207 0.0 9.0 0.00 0.00 0.00 83 1005.4
20260506173123 54 175 2.0 10.0 0.00 0.00 0.00 83 1005.5
20260506171543 54 213 2.0 10.0 0.00 0.00 0.00 83 1005.7
20260506170016 54 111 0.0 6.0 0.00 0.00 0.00 82 1006.1
20260506164551 56 161 1.0 10.0 0.00 0.00 0.00 80 1006.3
20260506163037 57 126 0.0 9.0 0.00 0.00 0.00 79 1006.4
20260506161504 57 176 2.0 9.0 0.00 0.00 0.00 80 1006.9
20260506160038 57 136 2.0 9.0 0.00 0.00 0.00 80 1007.0
20260506154517 57 217 4.0 15.0 0.00 0.00 0.00 82 1007.3
20260506153052 56 220 1.0 6.0 0.00 0.00 0.00 83 1007.1
20260506151524 55 215 3.0 10.0 0.00 0.00 0.00 83 1007.3
20260506150012 55 219 1.0 7.0 0.00 0.00 0.00 83 1007.3
20260506144550 55 167 1.0 7.0 0.00 0.00 0.00 83 1007.0
20260506143024 56 276 1.0 8.0 0.00 0.00 0.00 83 1007.1
20260506141503 55 198 1.0 9.0 0.00 0.00 0.00 84 1007.2
20260506140050 56 230 2.0 7.0 0.00 0.00 0.00 84 1007.5
20260506134517 55 146 1.0 8.0 0.00 0.00 0.00 84 1007.4
20260506133059 55 197 0.0 0.0 0.00 0.00 0.00 84 1007.5
20260506131540 55 238 2.0 7.0 0.00 0.00 0.00 84 1007.3
20260506130027 55 193 0.0 7.0 0.00 0.00 0.00 85 1007.3
20260506124558 54 146 2.0 8.0 0.00 0.00 0.00 85 1007.4
20260506123032 55 187 0.0 2.0 0.00 0.00 0.00 85 1007.3
20260506121508 54 135 0.0 0.0 0.00 0.00 0.00 86 1007.6
20260506120054 54 150 0.0 4.0 0.00 0.00 0.00 86 1007.7
20260506114523 53 162 0.0 6.0 0.00 0.00 0.00 87 1007.9
20260506113058 52 145 0.0 2.0 0.00 0.00 0.00 88 1007.9
20260506111540 52 169 0.0 0.0 0.00 0.00 0.00 88 1007.8
20260506110021 51 167 0.0 0.0 0.00 0.00 0.00 89 1007.8
20260506104512 51 169 0.0 3.0 0.00 0.00 0.00 89 1007.9
20260506103051 50 148 1.0 5.0 0.00 0.00 0.00 89 1007.7
20260506101539 50 179 0.0 5.0 0.00 0.00 0.00 90 1007.8
20260506100018 49 136 0.0 3.0 0.00 0.00 0.00 89 1007.6
20260506094557 49 159 0.0 2.0 0.00 0.00 0.00 88 1007.8
20260506093058 49 186 0.0 1.0 0.00 0.00 0.00 88 1007.5
20260506091514 50 206 0.0 2.0 0.00 0.00 0.00 86 1007.7
20260506090054 50 196 0.0 3.0 0.00 0.00 0.00 86 1007.6
20260506084522 51 200 0.0 5.0 0.00 0.00 0.00 86 1007.5
20260506083103 51 144 0.0 3.0 0.00 0.00 0.00 85 1007.4